Location: Raleigh
(35.7720°N, 78.6390°W)
Time: 05:12:00
(UTC-04:00)

Amateur Radio Satellites - All Passes

Search period start: 23 July 2016 04:42
Search period end: 24 July 2016 04:42
Location: Raleigh, 35.7720°N, 78.6390°W

Satellite Date Start Highest point End Downlink Frequencies (MHz)
Time Altitude Azimuth
MOZHAYETS 4 23 Jul 04:45:56 04:50:26 50° 260° (W) 04:54:58
KKS-1 23 Jul 04:46:42 04:50:58 48° 260° (W) 04:55:17 437.445
PCSat 23 Jul 04:52:44 04:55:35 14° 47° (NE) 04:58:26 145.827
GONETS M04 23 Jul 05:05:28 05:13:01 33° 275° (W) 05:20:35
AO-7 23 Jul 05:09:10 05:17:34 84° 106° (ESE) 05:25:54 29.400- 29.500
Cosmos 2499 23 Jul 05:13:04 05:20:05 36° 274° (W) 05:26:39 435.465 / 435.565
JUGNU 23 Jul 05:16:17 05:19:45 16° 176° (S) 05:23:11 437.505
ITAMSAT 1 23 Jul 05:23:04 05:26:55 21° 294° (WNW) 05:30:43 435.822/435.867
STARS 23 Jul 05:39:20 05:42:57 25° 264° (W) 05:46:36 437.465
DANDE 23 Jul 05:50:51 05:57:26 62° 279° (W) 06:02:24 436.750
CUBESAT XI-V 23 Jul 05:52:08 05:56:47 88° 265° (W) 06:01:25 437.345
ISS 23 Jul 05:54:03 05:57:02 32° 36° (NE) 06:00:00 145.825
BEESAT 2 23 Jul 06:00:47 06:04:48 81° 242° (WSW) 06:08:46 435.950
HORYU 2 23 Jul 06:04:37 06:09:05 66° 102° (ESE) 06:13:30 437.375
BEESAT 3 23 Jul 06:04:39 06:08:16 34° 246° (WSW) 06:11:51 437.485
BRITE-PL 23 Jul 06:16:30 06:20:13 22° 96° (E) 06:24:09 437.365/2234.400
NOAA 18 23 Jul 06:23:41 06:26:54 16° 93° (E) 06:30:05 137.9125
CUTE-I 23 Jul 06:27:28 06:30:49 17° 93° (E) 06:34:10 437.470
PCSat 23 Jul 06:34:12 06:39:39 82° 245° (WSW) 06:45:03 145.827
LilacSat-2 23 Jul 07:00:39 07:04:10 32° 98° (E) 07:07:38 437.200
NOAA 15 23 Jul 07:01:49 07:06:57 51° 100° (E) 07:12:03 137.62
AO-7 23 Jul 07:03:42 07:09:19 20° 305° (NW) 07:14:57 29.400- 29.500
JUGNU 23 Jul 07:04:43 07:07:59 15° 186° (S) 07:11:14 437.505
STRAND 1 23 Jul 07:04:53 07:09:28 33° 70° (ENE) 07:14:04 437.568
AIST 2 23 Jul 07:21:51 07:25:38 32° 55° (NE) 07:29:24 435.215
SRMSAT 23 Jul 07:24:02 07:27:26 16° 175° (S) 07:30:49 437.500
ISS 23 Jul 07:30:49 07:33:19 20° 230° (SW) 07:35:46 145.825
Cubesat XI-IV 23 Jul 07:40:35 07:45:58 89° 114° (ESE) 07:51:18 437.490
GOMX 1 23 Jul 07:42:03 07:47:02 81° 102° (ESE) 07:52:20 467.674
RS-15 23 Jul 07:42:04 07:53:09 64° 112° (ESE) 08:04:53 29.354- 29.394
HORYU 2 23 Jul 07:44:04 07:45:02 11° 297° (WNW) 07:46:00 437.375
HO-68 23 Jul 07:50:24 07:54:13 15° 91° (E) 07:58:00 435.675
BRITE-PL 23 Jul 07:54:26 07:58:41 34° 287° (WNW) 08:03:13 437.365/2234.400
DOVE 4 23 Jul 07:58:49 08:03:49 56° 100° (E) 08:08:59 437.250
NOAA 18 23 Jul 08:02:26 08:07:53 60° 288° (WNW) 08:13:18 137.9125
CUTE-I 23 Jul 08:05:57 08:11:08 52° 288° (WNW) 08:16:17 437.470
CANX-2 23 Jul 08:10:13 08:12:40 15° 93° (E) 08:15:06 2200.000
O/OREOS (USA 219) 23 Jul 08:12:02 08:16:34 88° 64° (ENE) 08:21:08 437.305
CUTE 1.7 + AOD 2 23 Jul 08:24:05 08:27:07 19° 94° (E) 08:30:06 437.475
LilacSat-2 23 Jul 08:35:58 08:38:08 15° 292° (WNW) 08:40:19 437.200
Cosmos 2491 23 Jul 08:36:29 08:43:18 25° 70° (ENE) 08:50:06 435.465 / 435.565
NOAA 15 23 Jul 08:42:50 08:46:17 18° 295° (WNW) 08:49:44 137.62
STRAND 1 23 Jul 08:44:27 08:48:38 25° 264° (W) 08:52:50 437.568
CINEMA 3 23 Jul 08:44:38 08:49:29 47° 99° (E) 08:54:17 145.822/145.860
CUBEBUG 2 23 Jul 08:48:15 08:50:39 14° 91° (E) 08:53:01 437.445
AIST 2 23 Jul 09:00:54 09:03:52 19° 250° (WSW) 09:06:50 435.215
SEEDS 23 Jul 09:11:00 09:15:03 49° 99° (E) 09:19:04 437.485
SRMSAT 23 Jul 09:12:26 09:15:50 16° 185° (S) 09:19:13 437.500
PRISM 23 Jul 09:15:16 09:19:20 76° 256° (WSW) 09:23:26 437.425
GOMX 1 23 Jul 09:23:21 09:24:31 11° 295° (WNW) 09:25:43 467.674
Cubesat XI-IV 23 Jul 09:24:12 09:25:12 11° 300° (WNW) 09:26:13 437.490
COMPASS 1 23 Jul 09:31:26 09:35:30 59° 100° (E) 09:39:34 437.405
HO-68 23 Jul 09:35:23 09:42:36 83° 287° (WNW) 09:49:47 435.675
Oscar 11 23 Jul 09:37:00 09:40:10 20° 94° (E) 09:43:17 145.826/435.025
DOVE 4 23 Jul 09:37:59 09:41:03 16° 294° (WNW) 09:44:12 437.250
ANTELSAT 23 Jul 09:38:45 09:41:07 14° 65° (ENE) 09:43:31 437.575/2403.000
CANX-2 23 Jul 09:44:45 09:48:38 36° 287° (WNW) 09:52:29 2200.000
SO-50 23 Jul 09:46:30 09:51:23 81° 299° (WNW) 09:56:17 436.795
RS-15 23 Jul 09:55:47 10:06:17 39° 315° (NW) 10:17:22 29.354- 29.394
CUTE 1.7 + AOD 2 23 Jul 09:59:18 10:02:56 29° 289° (WNW) 10:06:34 437.475
YUBILEINY 23 Jul 10:02:26 10:10:26 42° 87° (E) 10:18:29 435.215
AAUSAT CUBESAT 2 23 Jul 10:04:22 10:08:29 67° 283° (WNW) 10:12:32 437.432
UWE-3 23 Jul 10:10:26 10:15:06 79° 101° (E) 10:19:37 435.000/436.395/437.385
TIGRISAT 23 Jul 10:19:41 10:23:51 36° 72° (ENE) 10:28:08 435.000
ZACube-1 23 Jul 10:21:29 10:26:00 67° 100° (E) 10:30:23 437.345
CINEMA 3 23 Jul 10:22:52 10:26:11 18° 293° (WNW) 10:29:29 145.822/145.860
CUBEBUG 2 23 Jul 10:22:56 10:27:31 50° 286° (WNW) 10:32:01 437.445
FUNcube-1 23 Jul 10:23:09 10:27:39 65° 101° (E) 10:32:01 145.935
M-CUBED/EXP-1 PRIME 23 Jul 10:28:22 10:32:20 27° 101° (E) 10:36:19 437.505
Cosmos 2491 23 Jul 10:32:06 10:40:42 64° 268° (W) 10:49:19 435.465 / 435.565
UNISAT 6 23 Jul 10:34:09 10:38:37 57° 74° (ENE) 10:43:12 437.425
HUMSAT D 23 Jul 10:40:54 10:44:04 20° 95° (E) 10:47:11 437.325/437.525
Cosmos 2504 23 Jul 10:47:05 10:53:58 27° 83° (E) 11:00:55 435.465 / 435.565
SEEDS 23 Jul 10:48:43 10:50:17 12° 294° (WNW) 10:51:50 437.485
AUBIESAT-1 23 Jul 10:58:06 11:02:34 47° 104° (ESE) 11:07:00 437.475
DELFI C3 23 Jul 11:05:17 11:09:13 83° 283° (WNW) 11:13:09 145.870
NANOSAT C BR1 23 Jul 11:08:44 11:11:36 18° 68° (ENE) 11:14:30 145.865
Oscar 11 23 Jul 11:12:32 11:16:18 30° 289° (WNW) 11:20:01 145.826/435.025
ANTELSAT 23 Jul 11:12:53 11:17:19 52° 260° (W) 11:21:53 437.575/2403.000
DUCHIFAT 1 23 Jul 11:15:03 11:18:07 20° 69° (ENE) 11:21:12 145.980
HO-68 23 Jul 11:25:45 11:29:13 14° 304° (NW) 11:32:41 435.675
QB50P1 23 Jul 11:27:28 11:31:12 31° 71° (ENE) 11:34:58 145.935-145.965
SO-50 23 Jul 11:31:10 11:32:37 11° 317° (NW) 11:34:04 436.795
POPSAT HIP 1 23 Jul 11:33:20 11:37:11 36° 72° (ENE) 11:41:06 437.405
ESTCUBE 1 23 Jul 11:41:10 11:43:59 16° 94° (E) 11:46:49 437.505/2401.250
BUGSAT 1 23 Jul 11:48:29 11:51:27 20° 69° (ENE) 11:54:27 437.445
QB50P2 23 Jul 11:52:42 11:56:53 69° 76° (ENE) 12:01:08 145.880/145.840
POLYITAN 1 23 Jul 11:55:19 11:59:32 71° 76° (ENE) 12:03:48 437.675
TIGRISAT 23 Jul 11:57:28 12:00:38 18° 267° (W) 12:03:50 435.000
YUBILEINY 23 Jul 11:59:11 12:07:10 38° 285° (WNW) 12:15:14 435.215
ZACube-1 23 Jul 12:00:45 12:01:38 10° 296° (WNW) 12:02:30 437.345
FUNcube-1 23 Jul 12:02:13 12:03:15 11° 296° (WNW) 12:04:17 145.935
M-CUBED/EXP-1 PRIME 23 Jul 12:02:43 12:06:43 29° 294° (WNW) 12:10:46 437.505
50 SAT 23 Jul 12:07:37 12:09:55 16° 95° (E) 12:12:13 437.505
UNISAT 6 23 Jul 12:14:05 12:15:40 12° 269° (W) 12:17:17 437.425
HUMSAT D 23 Jul 12:16:06 12:19:38 27° 289° (WNW) 12:23:08 437.325/437.525
VELOX 1 23 Jul 12:16:21 12:19:53 23° 96° (E) 12:23:24 145.980
RS-15 23 Jul 12:17:19 12:23:52 16° 348° (NNW) 12:30:32 29.354- 29.394
CUBEBUG 1 23 Jul 12:28:56 12:33:02 37° 99° (E) 12:37:07 437.445
AUBIESAT-1 23 Jul 12:33:36 12:36:37 17° 298° (WNW) 12:39:37 437.475
Cosmos 2504 23 Jul 12:38:01 12:46:39 61° 280° (W) 12:55:28 435.465 / 435.565
NANOSAT C BR1 23 Jul 12:43:18 12:47:04 32° 262° (W) 12:50:53 145.865
SPROUT 23 Jul 12:44:34 12:47:54 22° 95° (E) 12:51:13 437.525
DUCHIFAT 1 23 Jul 12:49:57 12:53:36 29° 263° (W) 12:57:17 145.980
JAS-2 23 Jul 12:53:07 12:59:35 79° 76° (ENE) 13:05:18 435.910
AISAT 23 Jul 12:59:55 13:04:23 80° 101° (E) 13:08:51 437.250
QB50P1 23 Jul 13:04:06 13:07:00 18° 266° (W) 13:09:55 145.935-145.965
POPSAT HIP 1 23 Jul 13:10:31 13:13:04 16° 267° (W) 13:15:39 437.405
DX 1 23 Jul 13:15:24 13:19:48 82° 103° (ESE) 13:24:10 434.975-435.025
ESTCUBE 1 23 Jul 13:16:46 13:20:55 38° 288° (WNW) 13:25:03 437.505/2401.250
AIST 1 23 Jul 13:22:46 13:24:43 13° 86° (E) 13:26:40
BUGSAT 1 23 Jul 13:23:13 13:26:38 26° 263° (W) 13:30:06 437.445
Oscar 19 23 Jul 13:33:11 13:38:06 51° 73° (ENE) 13:43:03 437.125/150
UKube-1 23 Jul 13:37:35 13:41:53 70° 285° (WNW) 13:46:11 .
50 SAT 23 Jul 13:40:35 13:43:32 24° 289° (WNW) 13:46:27 437.505
AO-85 23 Jul 13:44:55 13:45:46 10° 105° (ESE) 13:46:38 145.980
VELOX 1 23 Jul 13:52:32 13:56:17 27° 290° (WNW) 14:00:01 145.980
TISAT 1 23 Jul 13:55:48 13:59:37 31° 98° (E) 14:03:25 437.305
CUBEBUG 1 23 Jul 14:06:10 14:08:59 17° 293° (WNW) 14:11:49 437.445
AO-7 23 Jul 14:16:08 14:21:16 18° 54° (NE) 14:26:24 29.400- 29.500
Gurwin Techsat 1B 23 Jul 14:18:00 14:23:13 61° 74° (ENE) 14:28:28 435.225
SPROUT 23 Jul 14:20:08 14:23:47 27° 289° (WNW) 14:27:25 437.525
RS-15 23 Jul 14:35:00 14:43:31 21° 26° (NNE) 14:52:03 29.354- 29.394
JAS-2 23 Jul 14:42:31 14:44:57 12° 267° (W) 14:47:17 435.910
ITAMSAT 1 23 Jul 14:57:51 15:02:51 48° 72° (ENE) 15:07:52 435.822/435.867
AIST 1 23 Jul 14:57:54 15:01:53 39° 280° (W) 15:05:53
SWISSCUBE 23 Jul 15:03:15 15:07:37 35° 98° (E) 15:11:57 437.505
CUSAT 1 23 Jul 15:09:34 15:11:22 15° 79° (E) 15:13:20 437.405
Oscar 19 23 Jul 15:14:37 15:17:40 16° 267° (W) 15:20:44 437.125/150
AO-85 23 Jul 15:20:10 15:25:36 89° 302° (WNW) 15:30:51 145.980
BEESAT 23 Jul 15:24:54 15:29:36 55° 101° (E) 15:34:15 436.000
TISAT 1 23 Jul 15:32:03 15:35:00 19° 292° (WNW) 15:37:58 437.305
ITUPSAT 1 23 Jul 15:45:03 15:49:51 90° 103° (ESE) 15:54:36 437.325
Cosmos 2499 23 Jul 15:51:27 15:59:13 36° 86° (E) 16:06:56 435.465 / 435.565
Gurwin Techsat 1B 23 Jul 16:00:48 16:03:31 14° 268° (W) 16:06:14 435.225
AO-7 23 Jul 16:04:29 16:12:51 87° 70° (ENE) 16:21:17 29.400- 29.500
GONETS M04 23 Jul 16:05:14 16:13:40 60° 91° (E) 16:22:10
DANDE 23 Jul 16:33:24 16:35:57 61° 81° (E) 16:38:41 436.750
ITAMSAT 1 23 Jul 16:39:03 16:42:31 18° 266° (W) 16:45:59 435.822/435.867
KKS-1 23 Jul 16:40:23 16:44:35 38° 99° (E) 16:48:46 437.445
SWISSCUBE 23 Jul 16:41:38 16:45:08 21° 293° (WNW) 16:48:38 437.505
MOZHAYETS 4 23 Jul 16:43:47 16:48:11 45° 99° (E) 16:52:32
RS-15 23 Jul 16:47:14 16:59:27 60° 54° (NE) 17:11:26 29.354- 29.394
CUSAT 1 23 Jul 16:51:36 16:53:13 14° 264° (W) 16:54:58 437.405
HORYU 2 23 Jul 16:59:40 17:03:52 41° 72° (ENE) 17:08:06 437.375
AO-85 23 Jul 17:04:04 17:06:44 14° 315° (NW) 17:09:19 145.980
BEESAT 23 Jul 17:04:26 17:06:52 14° 296° (WNW) 17:09:17 436.000
Cubesat XI-IV 23 Jul 17:23:16 17:25:36 13° 62° (ENE) 17:27:56 437.490
BRITE-PL 23 Jul 17:26:21 17:28:49 15° 68° (ENE) 17:31:16 437.365/2234.400
STARS 23 Jul 17:30:31 17:34:59 71° 102° (ESE) 17:39:24 437.465
LilacSat-2 23 Jul 17:41:46 17:43:13 12° 67° (ENE) 17:44:40 437.200
Cosmos 2499 23 Jul 17:43:36 17:52:02 47° 283° (WNW) 18:00:27 435.465 / 435.565
CUTE-I 23 Jul 17:46:20 17:50:22 22° 66° (ENE) 17:54:25 437.470
NOAA 18 23 Jul 17:46:42 17:51:00 24° 66° (ENE) 17:55:20 137.9125
CUBESAT XI-V 23 Jul 17:51:57 17:55:54 28° 96° (E) 17:59:52 437.345
AO-7 23 Jul 18:01:38 18:06:27 16° 268° (W) 18:11:18 29.400- 29.500
GONETS M04 23 Jul 18:04:02 18:10:58 26° 289° (WNW) 18:17:58
PHONESAT 2.4 23 Jul 18:08:02 18:10:20 20° 146° (SSE) 18:12:40 2401.200-2431.200
KKS-1 23 Jul 18:17:53 18:20:50 17° 293° (WNW) 18:23:45 437.445
NOAA 15 23 Jul 18:18:59 18:24:09 61° 73° (ENE) 18:29:19 137.62
SO-50 23 Jul 18:21:05 18:25:27 40° 55° (NE) 18:29:40 436.795
MOZHAYETS 4 23 Jul 18:22:17 18:24:55 15° 294° (WNW) 18:27:32
HORYU 2 23 Jul 18:37:57 18:40:34 15° 266° (W) 18:43:12 437.375
GOMX 1 23 Jul 18:48:06 18:52:08 58° 75° (ENE) 18:56:17 467.674
Cubesat XI-IV 23 Jul 18:59:36 19:04:59 75° 258° (WSW) 19:10:23 437.490
RS-15 23 Jul 19:00:29 19:11:23 39° 254° (WSW) 19:22:07 29.354- 29.394
DOVE 4 23 Jul 19:02:12 19:05:59 34° 72° (ENE) 19:09:56 437.250
BRITE-PL 23 Jul 19:03:12 19:07:04 34° 262° (W) 19:10:51 437.365/2234.400
LilacSat-2 23 Jul 19:13:26 19:17:06 41° 262° (W) 19:20:48 437.200
CUTE 1.7 + AOD 2 23 Jul 19:16:31 19:17:07 10° 65° (ENE) 19:17:43 437.475
STRAND 1 23 Jul 19:19:46 19:22:18 14° 92° (E) 19:24:50 437.568
CUTE-I 23 Jul 19:25:02 19:30:06 42° 261° (W) 19:35:11 437.470
NOAA 18 23 Jul 19:26:12 19:31:22 41° 261° (W) 19:36:35 137.9125
CUBESAT XI-V 23 Jul 19:29:27 19:33:08 24° 291° (WNW) 19:36:49 437.345
PCSat 23 Jul 19:31:26 19:35:11 19° 105° (ESE) 19:38:56 145.827
PHONESAT 2.4 23 Jul 19:43:34 19:46:38 72° 340° (NNW) 19:49:43 2401.200-2431.200
CINEMA 3 23 Jul 19:43:48 19:47:33 28° 70° (ENE) 19:51:29 145.822/145.860
BEESAT 2 23 Jul 19:50:06 19:53:40 34° 114° (ESE) 19:57:16 435.950
BEESAT 3 23 Jul 19:51:54 19:55:47 75° 119° (ESE) 19:59:43 437.485
SEEDS 23 Jul 20:00:14 20:03:37 24° 70° (ENE) 20:07:01 437.485
HO-68 23 Jul 20:00:23 20:07:20 56° 70° (ENE) 20:14:19 435.675
NOAA 15 23 Jul 20:01:43 20:04:16 14° 268° (W) 20:06:50 137.62
SO-50 23 Jul 20:02:27 20:05:34 18° 251° (WSW) 20:08:37 436.795
YUBILEINY 23 Jul 20:17:30 20:22:49 17° 66° (ENE) 20:28:06 435.215
COMPASS 1 23 Jul 20:19:31 20:23:04 27° 71° (ENE) 20:26:36 437.405
Oscar 11 23 Jul 20:30:45 20:32:13 11° 65° (ENE) 20:33:40 145.826/435.025
CANX-2 23 Jul 20:33:50 20:38:08 79° 259° (W) 20:42:25 2200.000
DOVE 4 23 Jul 20:41:17 20:43:51 16° 268° (W) 20:46:28 437.250
O/OREOS (USA 219) 23 Jul 20:44:35 20:46:52 14° 99° (E) 20:49:09 437.305
CUTE 1.7 + AOD 2 23 Jul 20:48:09 20:52:23 61° 260° (W) 20:56:39 437.475
AAUSAT CUBESAT 2 23 Jul 20:51:22 20:55:24 51° 75° (ENE) 20:59:27 437.432
STRAND 1 23 Jul 20:56:47 21:01:48 58° 287° (WNW) 21:06:47 437.568
PRISM 23 Jul 21:00:35 21:03:20 17° 95° (E) 21:06:04 437.425
UWE-3 23 Jul 21:04:10 21:08:25 43° 73° (ENE) 21:12:48 435.000/436.395/437.385
PCSat 23 Jul 21:12:55 21:18:09 49° 301° (WNW) 21:23:25 145.827
M-CUBED/EXP-1 PRIME 23 Jul 21:13:21 21:15:45 17° 62° (ENE) 21:18:16 437.505
ZACube-1 23 Jul 21:14:09 21:18:14 36° 72° (ENE) 21:22:25 437.345
FUNcube-1 23 Jul 21:15:33 21:19:37 35° 72° (ENE) 21:23:44 145.935
CUBEBUG 2 23 Jul 21:17:25 21:21:54 87° 256° (WSW) 21:26:34 437.445
AIST 2 23 Jul 21:18:31 21:20:27 13° 108° (ESE) 21:22:24 435.215
PHONESAT 2.4 23 Jul 21:20:35 21:23:24 32° 357° (N) 21:26:14 2401.200-2431.200
CINEMA 3 23 Jul 21:21:15 21:24:40 22° 266° (W) 21:28:13 145.822/145.860
BEESAT 2 23 Jul 21:28:47 21:31:35 18° 309° (NW) 21:34:23 435.950
HUMSAT D 23 Jul 21:31:19 21:32:32 11° 65° (ENE) 21:33:44 437.325/437.525
Cosmos 2491 23 Jul 21:34:17 21:41:34 31° 85° (E) 21:48:49 435.465 / 435.565
SEEDS 23 Jul 21:35:45 21:39:12 24° 264° (W) 21:42:38 437.485
AUBIESAT-1 23 Jul 21:42:00 21:45:13 30° 66° (ENE) 21:48:41 437.475
DELFI C3 23 Jul 21:48:15 21:51:54 36° 73° (ENE) 21:55:34 145.870
HO-68 23 Jul 21:49:43 21:55:19 24° 265° (W) 22:00:58 435.675
COMPASS 1 23 Jul 21:55:27 21:58:35 20° 265° (W) 22:01:43 437.405
Oscar 11 23 Jul 22:03:33 22:07:49 56° 260° (W) 22:12:07 145.826/435.025
YUBILEINY 23 Jul 22:11:52 22:20:45 88° 264° (W) 22:29:34 435.215
O/OREOS (USA 219) 23 Jul 22:21:33 22:25:49 44° 294° (WNW) 22:30:06 437.305
UNISAT 6 23 Jul 22:30:15 22:33:00 15° 92° (E) 22:35:43 437.425
AAUSAT CUBESAT 2 23 Jul 22:30:24 22:31:08 10° 268° (W) 22:31:52 437.432
ISS 23 Jul 22:31:12 22:34:19 45° 134° (SE) 22:37:26 145.825
PRISM 23 Jul 22:35:04 22:38:39 30° 289° (WNW) 22:42:14 437.425
Cosmos 2504 23 Jul 22:35:16 22:43:02 44° 76° (ENE) 22:50:13 435.465 / 435.565
ESTCUBE 1 23 Jul 22:39:34 22:41:02 11° 65° (ENE) 22:42:31 437.505/2401.250
UWE-3 23 Jul 22:42:29 22:45:04 15° 268° (W) 22:47:43 435.000/436.395/437.385
M-CUBED/EXP-1 PRIME 23 Jul 22:46:58 22:50:02 27° 259° (W) 22:53:21 437.505
ZACube-1 23 Jul 22:51:33 22:54:36 18° 267° (W) 22:57:43 437.345
FUNcube-1 23 Jul 22:52:47 22:55:54 19° 267° (W) 22:59:05 145.935
AIST 2 23 Jul 22:54:34 22:58:30 45° 303° (WNW) 23:02:29 435.215
PHONESAT 2.4 23 Jul 22:57:17 23:00:17 46° 14° (NNE) 23:03:16 2401.200-2431.200
HUMSAT D 23 Jul 23:03:22 23:07:35 58° 260° (W) 23:11:52 437.325/437.525
ANTELSAT 23 Jul 23:07:34 23:11:57 40° 98° (E) 23:16:14 437.575/2403.000
VELOX 1 23 Jul 23:11:58 23:14:27 15° 66° (ENE) 23:16:56 145.980
AUBIESAT-1 23 Jul 23:17:40 23:19:49 15° 263° (W) 23:22:03 437.475
CUBEBUG 1 23 Jul 23:22:40 23:25:58 22° 69° (ENE) 23:29:18 437.445
DELFI C3 23 Jul 23:24:47 23:26:51 14° 267° (W) 23:28:56 145.870
Cosmos 2491 23 Jul 23:29:34 23:37:56 50° 282° (WNW) 23:46:21 435.465 / 435.565
SPROUT 23 Jul 23:37:02 23:38:42 12° 65° (ENE) 23:40:22 437.525
QB50P2 23 Jul 23:42:03 23:44:20 14° 93° (E) 23:46:36 145.880/145.840
POLYITAN 1 23 Jul 23:44:38 23:46:59 14° 93° (E) 23:49:21 437.675
TIGRISAT 23 Jul 23:50:16 23:54:54 69° 285° (WNW) 23:59:26 435.000
AISAT 23 Jul 23:54:20 23:58:32 48° 73° (ENE) 00:02:46 437.250
AO-85 23 Jul 23:55:48 23:59:45 32° 53° (NE) 00:03:24 145.980
UNISAT 6 24 Jul 00:05:29 00:09:55 43° 287° (WNW) 00:14:12 437.425
DX 1 24 Jul 00:07:58 00:12:05 47° 73° (ENE) 00:16:15 434.975-435.025
ISS 24 Jul 00:08:31 00:10:53 18° 330° (NNW) 00:13:16 145.825
YUBILEINY 24 Jul 00:11:53 00:16:10 15° 282° (WNW) 00:20:26 435.215
ESTCUBE 1 24 Jul 00:12:51 00:17:18 61° 259° (W) 00:21:45 437.505/2401.250
50 SAT 24 Jul 00:14:20 00:18:01 88° 90° (E) 00:21:42 437.505
UKube-1 24 Jul 00:28:56 00:33:11 66° 75° (ENE) 00:37:27 .
Cosmos 2504 24 Jul 00:29:06 00:36:03 32° 275° (W) 00:42:36 435.465 / 435.565
NANOSAT C BR1 24 Jul 00:30:02 00:34:10 47° 100° (E) 00:38:16 145.865
PHONESAT 2.4 24 Jul 00:33:53 00:36:46 37° 209° (SSW) 00:39:38 2401.200-2431.200
DUCHIFAT 1 24 Jul 00:36:13 00:40:24 52° 100° (E) 00:44:33 145.980
ANTELSAT 24 Jul 00:45:14 00:48:17 17° 293° (WNW) 00:51:17 437.575/2403.000
TISAT 1 24 Jul 00:45:36 00:48:17 17° 68° (ENE) 00:50:59 437.305
VELOX 1 24 Jul 00:46:22 00:50:31 42° 261° (W) 00:54:42 145.980
QB50P1 24 Jul 00:50:01 00:54:19 89° 84° (E) 00:58:36 145.935-145.965
POPSAT HIP 1 24 Jul 00:56:06 01:00:24 79° 285° (WNW) 01:04:41 437.405
CUBEBUG 1 24 Jul 00:58:27 01:02:05 27° 263° (W) 01:05:46 437.445
BUGSAT 1 24 Jul 01:06:57 01:11:06 51° 100° (E) 01:15:14 437.445
AIST 1 24 Jul 01:07:36 01:11:33 34° 79° (E) 01:15:30
SPROUT 24 Jul 01:10:01 01:14:09 51° 260° (W) 01:18:20 437.525
QB50P2 24 Jul 01:16:15 01:20:17 41° 287° (WNW) 01:24:18 145.880/145.840
POLYITAN 1 24 Jul 01:18:54 01:22:57 40° 287° (WNW) 01:26:57 437.675
AISAT 24 Jul 01:33:22 01:35:14 12° 268° (W) 01:37:07 437.250
AO-85 24 Jul 01:36:56 01:39:51 18° 251° (WSW) 01:42:39 145.980
DX 1 24 Jul 01:46:42 01:48:30 12° 267° (W) 01:50:18 434.975-435.025
Oscar 19 24 Jul 01:48:12 01:52:13 23° 95° (E) 01:56:14 437.125/150
JAS-2 24 Jul 01:49:36 01:54:53 88° 104° (ESE) 02:00:36 435.910
SWISSCUBE 24 Jul 02:06:59 02:11:08 30° 70° (ENE) 02:15:19 437.505
NANOSAT C BR1 24 Jul 02:07:27 02:09:27 13° 294° (WNW) 02:11:26 145.865
DUCHIFAT 1 24 Jul 02:14:00 02:15:35 12° 295° (WNW) 02:17:11 145.980
GONETS M04 24 Jul 02:19:47 02:26:44 25° 70° (ENE) 02:33:40
TISAT 1 24 Jul 02:19:50 02:23:38 34° 262° (W) 02:27:29 437.305
BEESAT 24 Jul 02:28:20 02:32:54 46° 72° (ENE) 02:37:28 436.000
Gurwin Techsat 1B 24 Jul 02:37:31 02:42:10 30° 97° (E) 02:46:48 435.225
BUGSAT 1 24 Jul 02:44:17 02:45:59 12° 294° (WNW) 02:47:42 437.445
AIST 1 24 Jul 02:46:10 02:48:48 16° 273° (W) 02:51:27
ITUPSAT 1 24 Jul 02:48:38 02:53:26 75° 75° (ENE) 02:58:14 437.325
ITAMSAT 1 24 Jul 03:14:23 03:18:16 21° 95° (E) 03:22:08 435.822/435.867
JUGNU 24 Jul 03:14:36 03:16:24 11° 167° (SSE) 03:18:11 437.505
Oscar 19 24 Jul 03:26:52 03:31:35 37° 289° (WNW) 03:36:18 437.125/150
KKS-1 24 Jul 03:35:59 03:39:35 25° 69° (ENE) 03:43:13 437.445
Cosmos 2499 24 Jul 03:39:04 03:46:49 56° 79° (E) 03:53:58 435.465 / 435.565
MOZHAYETS 4 24 Jul 03:42:49 03:46:54 31° 71° (ENE) 03:51:00
SWISSCUBE 24 Jul 03:45:01 03:48:53 24° 264° (W) 03:52:46 437.505
DANDE 24 Jul 03:58:09 04:00:29 12° 91° (E) 04:02:38 436.750
BEESAT 24 Jul 04:08:00 04:10:51 16° 267° (W) 04:13:45 436.000
CUSAT 1 24 Jul 04:08:42 04:13:07 33° 97° (E) 04:16:36 437.405
AO-7 24 Jul 04:09:59 04:17:26 35° 98° (E) 04:24:49 29.400- 29.500
BEESAT 3 24 Jul 04:12:30 04:15:19 18° 51° (NE) 04:18:07 437.485
BEESAT 2 24 Jul 04:12:51 04:13:35 10° 46° (NE) 04:14:19 435.950
GONETS M04 24 Jul 04:15:27 04:24:06 63° 268° (W) 04:32:44
Gurwin Techsat 1B 24 Jul 04:17:28 04:22:00 29° 292° (WNW) 04:26:31 435.225
PCSat 24 Jul 04:23:33 04:24:27 10° 44° (NE) 04:25:21 145.827
STARS 24 Jul 04:24:14 04:28:21 42° 73° (ENE) 04:32:31 437.465
